SALSAT (46495 NORAD) Tracking and Keplerian Element Data

This shows tracking and keplerian element data for the satellite.

Feedback or suggestion? Click here.




ElementValue
Catalog46495
NameSALSAT
Epoch Orbit11770
Epoch Day324.82236257
Epoch Year2022
RAAN266.3545
Inclination97.7456
Eccentricity0.0018144
Argument of Perigee105.3236
Mean Anonmoly254.9996
Mean Motion15.05327236
Decay Rate1.737E-05
L11 46495U 20068K 22324.82236257 .00001737 00000+0 12537-3 0 9990
L22 46495 97.7456 266.3545 0018144 105.3236 254.9996 15.05327236117701



Live tracking and technical data element details for SALSAT (NORAD 46495). SALSAT can be tracked NOW for your location showing map with azimuth and elevation plus other details from your city location.







IsCatalogInMostPopularTable: catalog: 46495, numindb: 153
Update: records affected: 1



GetName: 46495 SALSAT

Hit Count: updated at: Mon, 28 Nov 2022 06:05:59 GMT